Orbital Elements at Epoch 2459200.5 (2020-Dec-17.0) TDB
Reference: JPL 35 (heliocentric ecliptic J2000)
Element | Value | Uncertainty (1-sigma) | Units |
e | .07822442251381145 | 3.064e-08 | |
a | 3.117069030078713 | 1.5329e-08 | au |
q | 2.873238105265119 | 9.9544e-08 | au |
i | 11.44380405624532 | 3.8727e-06 | deg |
node | 180.7509860117169 | 1.666e-05 | deg |
peri | 302.8871409769129 | 3.4281e-05 | deg |
M | 358.823907008406 | 2.7504e-05 | deg |
tp | 2459207.066851846908 (2020-Dec-23.56685185) | 0.00015356 | TDB |
period | 2010.101821695936 5.50 | 1.4827e-05 4.059e-08 | d yr |
n | .179095405075682 | 1.3211e-09 | deg/d |
Q | 3.360899954892307 | 1.6528e-08 | au |
|
| | Orbit Determination Parameters
Additional Information
|